RADUGA-1 3 [-]

Last updated on July 6, 2021, 3:35 p.m. UTC

1 22981U 94008A   21186.65257274  .00000082  00000-0  00000-0 0  9999
2 22981  14.8351   2.3578 0005638  71.3907 135.0882  1.00290297100356
UTC
Height (km)
Latitude
Longitude
Inclination
Orbital Period
UTC large
Height (km)
Speed (km/s)
/
Latitude / Longitude
Inclination (degrees)
Orbital Period (minutes)
Azimuth
Elevation
Range (km)
Doppler Factor
iOS Compass Heading
iOS Angle